Weather Roundup
Issued by NWS Springfield, MO

Home | Current Version | Previous Version | Text Only | Print | Product List | Glossary On
Versions: 1 2 3 4 5 6 7 8 9 10 11 12 13 14 15 16 17 18 19 20 21 22 23 24 25 26 27 28 29 30 31 32 33 34 35 36 37 38 39 40 41 42 43 44 45 46 47 48 49 50
000
NZUS99 KSGF 260107
HRRSGF

HOURLY WEATHER
NATIONAL WEATHER SERVICE SPRINGFIELD MO
800 PM CDT SUN JUN 25 2017

......SGF CWA......

CITY           SKY/WX    TMP DP  RH WIND       PRES   REMARKS
SPRINGFIELD    CLEAR     75  57  53 N9        30.22F
JOPLIN         CLOUDY    75  59  57 N13       30.22S
WEST PLAINS    CLEAR     76  52  43 NW5       30.22S
ROLLA          CLOUDY    71  53  52 NW7       30.20F
OSAGE BEACH    CLOUDY    73  53  49 VRB5      30.22F
BRANSON        PTCLDY    77  57  50 N6        30.23S

......SURROUNDING SGF CWA......

CITY           SKY/WX    TMP DP  RH WIND       PRES   REMARKS
CHANUTE        CLOUDY    69  52  54 N10       30.24S
PARSONS        CLOUDY    71  57  61 N7        30.23F
COFFEYVILLE    MOCLDY    77  59  53 N17G23    30.21R
EMPORIA        CLOUDY    65  54  67 E7        30.24F
GROVE OK       PTCLDY    79  57  47 CALM      30.21S
ROGERS AR      PTCLDY    75  59  57 NE8       30.23R
SILOAM SPRINGS CLEAR    N/A N/A N/A MISG        N/A
HARRISON AR    CLEAR     75  57  53 CALM      30.22S
NEAR YELLVILLE PTCLDY   N/A N/A N/A W3        30.17S

......KANSAS AND MISSOURI......

CITY           SKY/WX    TMP DP  RH WIND       PRES   REMARKS
KANSAS CTY INT PTCLDY    65  52  62 W8        30.23F
DOWNTOWN KC    PTCLDY    66  53  63 SW6       30.23F
COLUMBIA       CLOUDY    72  51  47 NW7       30.21S
SEDALIA        CLOUDY    67  52  58 W9        30.23F
ST JOSEPH      CLEAR     70  51  51 SW7       30.22S
ST LOUIS       MOCLDY    76  46  34 NW12      30.18R
SPIRIT OF STL  PTCLDY    74  48  39 NW10      30.17R
KIRKSVILLE     CLEAR     69  47  45 W6        30.21F
WICHITA        CLOUDY    68  61  78 E12       30.23S
TOPEKA         CLOUDY    64  55  72 SW5       30.24F
OLATHE         CLOUDY    64  51  62 NW3       30.24F

......TENNESSEE......

CITY           SKY/WX    TMP DP  RH WIND       PRES   REMARKS
MEMPHIS        CLEAR     79  51  37 N8        30.18R
NASHVILLE      CLEAR     77  48  35 W5        30.18R

......ARKANSAS.......

CITY           SKY/WX    TMP DP  RH WIND       PRES   REMARKS
FAYETTEVILLE   CLEAR     77  57  50 CALM      30.21S
FT SMITH       CLEAR     82  62  50 E5        30.15F
LITTLE ROCK    PTCLDY    78  56  46 E7        30.17F

......OKLAHOMA.......

CITY           SKY/WX    TMP DP  RH WIND       PRES   REMARKS
TULSA          MOCLDY    82  58  43 E6        30.16F
PONCA CITY     CLOUDY    74  62  66 NE16G25   30.18S
MCALESTER      CLEAR     82  60  47 NE5       30.16S
OKLAHOMA CITY  PTCLDY    82  48  30 SE8       30.17S

......IOWA............

CITY           SKY/WX    TMP DP  RH WIND       PRES   REMARKS
DES MOINES     PTCLDY    72  41  32 W9        30.19S
QUAD CITIES    CLEAR     68  47  46 NW8       30.15S

......ILLINOIS........

CITY           SKY/WX    TMP DP  RH WIND       PRES   REMARKS
QUINCY         CLEAR     69  45  41 NW9       30.18F
CHICAGO        MOCLDY    66  47  50 W18G26    30.09R




USA.gov is the U.S. government's official web portal to all federal, state and local government web resources and services.